"2016-04-12 00:00:00",1539291,0.145,319.3,37.24,0.161,11.87,104.1503,9.9,11.01,55.55,0,110.8,13.12,10.69,281.3
"2016-04-12 00:00:30",1539292,0.189,330.7,16.49,0.089,11.71,104.1288,9.84,10.97,55.69,0,110.8,13.12,10.63,292.7
"2016-04-12 00:01:00",1539293,0.117,352.9,15.55,0.224,12.32,104.1404,9.87,10.94,55.88,0,110.8,13.12,10.66,314.9
"2016-04-12 00:01:30",1539294,1.452,358.7,9.8,1.171,13.19,104.1627,9.93,11.01,56.12,0,110.8,13.07,10.72,320.7
"2016-04-12 00:02:00",1539295,1.574,332.6,27.05,1.282,13.13,104.1703,9.95,11.09,56.16,0,110.8,13.07,10.74,294.6
"2016-04-12 00:02:30",1539296,2.127,318.6,12.43,1.612,13.25,104.1877,9.99,11.1,56.07,0,110.8,13.07,10.78,280.6
"2016-04-12 00:03:00",1539297,1.959,325.6,16.77,1.165,12.6,104.1562,9.91,11.06,55.96,0,110.8,13.07,10.70,287.6
"2016-04-12 00:03:30",1539298,1.638,312.2,3.913,0.137,10.91,104.1509,9.9,10.94,56.1,0,110.8,13.11,10.69,274.2
"2016-04-12 00:04:00",1539299,1.915,303.9,4.665,0.361,11.02,104.1661,9.94,10.94,56,0,110.8,13.11,10.73,265.9
"2016-04-12 00:04:30",1539300,1.084,296.7,6.472,0.123,11.26,104.1689,9.95,10.96,56.04,0,110.8,13.11,10.73,258.7
"2016-04-12 00:05:00",1539301,1.261,297.8,14.19,0.264,11.52,104.1706,9.95,10.97,55.85,0,110.8,13.11,10.74,259.8
"2016-04-12 00:05:30",1539302,0.791,306.7,13.12,0.093,11.69,104.1923,10.01,10.97,55.89,0,110.8,13.12,10.79,268.7
"2016-04-12 00:06:00",1539303,1.513,330.8,23.46,1.324,13.22,104.2013,10.03,11.1,56.01,0,110.8,13.07,10.82,292.8
"2016-04-12 00:06:30",1539304,1.44,356.9,10.56,1.48,13.76,104.2153,10.06,11.17,55.98,0,110.8,13.07,10.85,318.9
"2016-04-12 00:07:00",1539305,0.63,349.9,4.683,0.127,11.83,104.2364,10.12,11.05,55.51,0,110.8,13.11,10.91,311.9
"2016-04-12 00:07:30",1539306,0.74,351.3,6.257,0.246,11.7,104.243,10.14,11.08,55.22,0,110.8,13.11,10.92,313.3
"2016-04-12 00:08:00",1539307,1.129,356,9.08,1.074,12.64,104.2678,10.2,11.2,55.03,0,110.8,13.07,10.99,318.0
"2016-04-12 00:08:30",1539308,1.772,351.2,10.11,1.456,13.89,104.2794,10.23,11.25,54.85,0,110.8,13.07,11.02,313.2
"2016-04-12 00:09:00",1539309,0.42,350.8,7.544,0.151,11.4,104.2854,10.24,11.2,54.58,0,110.8,13.11,11.03,312.8
"2016-04-12 00:09:30",1539310,0.473,350.1,6.318,0.151,11.15,104.3128,10.31,11.22,54.45,0,110.8,13.11,11.10,312.1
"2016-04-12 00:10:00",1539311,0.449,352.1,3.243,0.099,10.87,104.3179,10.33,11.24,54.29,0,110.8,13.11,11.12,314.1
"2016-04-12 00:10:30",1539312,0.702,349.3,5.489,0.169,10.96,104.3298,10.36,11.28,54.1,0,110.8,13.11,11.15,311.3
"2016-04-12 00:11:00",1539313,0.547,357.4,8.5,0.255,11.5,104.3532,10.42,11.32,53.97,0,110.8,13.1,11.21,319.4
"2016-04-12 00:11:30",1539314,0.292,1.274,13.3,0.208,11.81,104.3566,10.43,11.35,53.89,0,110.8,13.11,11.21,323.3
"2016-04-12 00:12:00",1539315,0.355,343.3,10.61,0.119,11.37,104.3668,10.45,11.37,53.83,0,110.8,13.11,11.24,305.3
"2016-04-12 00:12:30",1539316,0.928,294.5,16.18,1.027,12.53,104.3865,10.5,11.49,53.79,0,110.8,13.06,11.29,256.5
"2016-04-12 00:13:00",1539317,1.553,298.4,11.31,1.41,13.37,104.3904,10.51,11.56,53.71,0,110.8,13.06,11.30,260.4
"2016-04-12 00:13:30",1539318,0.422,314,6.752,0.28,11.69,104.4014,10.54,11.49,53.61,0,110.8,13.11,11.33,276.0
"2016-04-12 00:14:00",1539319,0.334,313.8,14.91,0.123,11.54,104.4149,10.58,11.49,53.54,0,110.8,13.11,11.36,275.8
"2016-04-12 00:14:30",1539320,1.173,315.5,7.771,1.166,12.91,104.4242,10.6,11.63,53.44,0,110.7,13.06,11.39,277.5
"2016-04-12 00:15:00",1539321,1.327,316.4,8.21,1.281,13.12,104.4242,10.6,11.66,53.34,0,110.8,13.06,11.39,278.4
"2016-04-12 00:15:30",1539322,0.07,325,9.69,0.12,11.44,104.434,10.62,11.57,53.16,0,110.8,13.11,11.41,287.0
"2016-04-12 00:16:00",1539323,0.412,342.9,9,0.155,11.34,104.454,10.68,11.59,53,0,110.8,13.11,11.46,304.9
"2016-04-12 00:16:30",1539324,1.123,343.7,11,1.315,12.7,104.458,10.69,11.76,52.93,0,110.8,13.07,11.47,305.7
"2016-04-12 00:17:00",1539325,1.261,356.6,7.492,1.202,13.06,104.4582,10.69,11.79,52.82,0,110.7,13.07,11.48,318.6
"2016-04-12 00:17:30",1539326,0.377,337.2,3.403,0.049,11.15,104.4734,10.72,11.68,52.54,0,110.7,13.11,11.51,299.2
"2016-04-12 00:18:00",1539327,0.409,328.5,5.357,0.071,10.77,104.4886,10.76,11.7,52.48,0,110.7,13.11,11.55,290.5
"2016-04-12 00:18:30",1539328,0.444,324.1,5.085,0.118,10.74,104.4917,10.77,11.74,52.39,0,110.8,13.11,11.56,286.1
"2016-04-12 00:19:00",1539329,0.214,302.9,17.18,0.14,10.94,104.4926,10.77,11.74,52.38,0,110.7,13.11,11.56,264.9
"2016-04-12 00:19:30",1539330,0.445,286.4,11.53,0.105,11.25,104.508,10.81,11.77,52.33,0,110.7,13.12,11.60,248.4
"2016-04-12 00:20:00",1539331,0.479,281,9.01,0.075,11.35,104.5193,10.84,11.79,52.26,0,110.7,13.12,11.63,243.0
"2016-04-12 00:20:30",1539332,0.38,291.5,14.08,0.07,11.37,104.5255,10.86,11.83,52.17,0,110.7,13.12,11.65,253.5
"2016-04-12 00:21:00",1539333,0.457,300.4,3.992,0.047,11.35,104.5255,10.86,11.84,52.06,0,110.7,13.12,11.65,262.4
"2016-04-12 00:21:30",1539334,0.318,300.4,3.684,0.118,11.58,104.5292,10.87,11.87,51.99,0,110.7,13.12,11.66,262.4
"2016-04-12 00:22:00",1539335,0.334,310.2,7.115,0.069,11.74,104.5491,10.92,11.88,51.9,0,110.7,13.12,11.71,272.2
"2016-04-12 00:22:30",1539336,1.344,340.9,14.38,1.402,13.89,104.5567,10.94,12.16,52.05,0,110.7,13.07,11.73,302.9
"2016-04-12 00:23:00",1539337,0.929,316.7,10.68,0.934,12.43,104.5593,10.94,11.95,51.71,0,110.7,13.07,11.73,278.7
"2016-04-12 00:23:30",1539338,1.262,345.3,19.08,1.328,13.34,104.5593,10.94,12.05,51.8,0,110.7,13.07,11.73,307.3
"2016-04-12 00:24:00",1539339,1.072,4.005,11.32,1.274,13.35,104.5596,10.95,12.06,51.77,0,110.7,13.07,11.74,326.0
"2016-04-12 00:24:30",1539340,0.058,357.3,19.18,0.156,12.36,104.5686,10.97,11.97,51.58,0,110.7,13.11,11.76,319.3
"2016-04-12 00:25:00",1539341,0.09,7.553,18.24,0.166,11.98,104.5798,11,12,51.44,0,110.7,13.12,11.79,329.6
"2016-04-12 00:25:30",1539342,0.021,5.074,12.99,0.112,12.29,104.5849,11.01,12.01,51.41,0,110.7,13.12,11.80,327.1
"2016-04-12 00:26:00",1539343,0.062,2.198,20.23,0.144,12.31,104.5919,11.03,12.02,51.26,0,110.7,13.11,11.82,324.2
"2016-04-12 00:26:30",1539344,0.183,8.64,12.3,0.235,12.07,104.593,11.03,12.04,51.18,0,110.7,13.11,11.82,330.6
"2016-04-12 00:27:00",1539345,0.804,9.02,9.22,1.099,13.05,104.593,11.03,12.16,51.22,0,110.7,13.07,11.82,331.0
"2016-04-12 00:27:30",1539346,1.777,2.721,14.47,1.331,13.99,104.5933,11.03,12.16,51.27,0,110.8,13.06,11.82,324.7
"2016-04-12 00:28:00",1539347,0.753,2.814,6.411,0.65,12.41,104.6049,11.06,12.15,51.15,0,110.7,13.06,11.85,324.8
"2016-04-12 00:28:30",1539348,0.375,0.079,7.508,0.199,11.68,104.6147,11.09,12.07,50.92,0,110.7,13.11,11.88,322.1
"2016-04-12 00:29:00",1539349,0.625,340.5,4.502,0.078,11.07,104.6237,11.11,12.09,50.89,0,110.7,13.11,11.90,302.5
"2016-04-12 00:29:30",1539350,0.427,356.1,16.98,0.237,11.5,104.6283,11.12,12.14,50.92,0,110.7,13.11,11.91,318.1
"2016-04-12 00:30:00",1539351,0.396,8.33,10.57,0.089,11.38,104.6306,11.13,12.13,50.87,0,110.7,13.11,11.92,330.3
"2016-04-12 00:30:30",1539352,0.137,11.34,14.64,0.118,11.75,104.6324,11.13,12.15,50.67,0,110.7,13.11,11.92,333.3
"2016-04-12 00:31:00",1539353,-0.027,3.109,13.09,0.117,12.39,104.6327,11.13,12.17,50.58,0,110.7,13.11,11.92,325.1
"2016-04-12 00:31:30",1539354,-0.078,8.47,18.96,0.096,12.39,104.6359,11.14,12.17,50.51,0,110.7,13.11,11.93,330.5
"2016-04-12 00:32:00",1539355,-0.022,1.595,18.28,0.122,12.3,104.6359,11.14,12.16,50.51,0,110.7,13.11,11.93,323.6
"2016-04-12 00:32:30",1539356,0.843,352.1,7.346,1.18,13.13,104.6374,11.14,12.27,50.82,0,110.7,13.07,11.94,314.1
"2016-04-12 00:33:00",1539357,1.679,341.2,9.05,1.425,13.8,104.6395,11.15,12.29,50.96,0,110.7,13.07,11.94,303.2
"2016-04-12 00:33:30",1539358,0.911,345.7,11.29,0.939,13,104.642,11.16,12.28,50.9,0,110.7,13.07,11.95,307.7
"2016-04-12 00:34:00",1539359,0.296,1.083,22.69,0.675,12.83,104.6504,11.18,12.25,50.69,0,110.7,13.07,11.97,323.1
"2016-04-12 00:34:30",1539360,1.196,357.9,20.26,1.449,15.05,104.6439,11.16,12.32,50.42,0,110.7,13.07,11.95,319.9
"2016-04-12 00:35:00",1539361,0.311,12.63,28.96,0.95,13.31,104.6442,11.16,12.29,50.38,0,110.7,13.07,11.95,334.6
"2016-04-12 00:35:30",1539362,-0.018,349.1,14.81,0.123,12.23,104.6345,11.14,12.18,50.33,0,110.7,13.12,11.93,311.1
"2016-04-12 00:36:00",1539363,0.008,355.3,19.76,0.078,12.12,104.6154,11.09,12.18,50.35,0,110.7,13.12,11.88,317.3
"2016-04-12 00:36:30",1539364,0.987,60.07,13.36,1.461,14.03,104.6187,11.1,12.27,50.54,0,110.7,13.07,11.89,22.1
"2016-04-12 00:37:00",1539365,0.42,102.9,16,1.221,12.63,104.6181,11.1,12.23,50.75,0,110.7,13.07,11.89,64.9
"2016-04-12 00:37:30",1539366,-0.277,93.5,40.5,0.048,10.85,104.6207,11.1,12.12,50.77,0,110.7,13.12,11.89,55.5
"2016-04-12 00:38:00",1539367,-0.224,117.3,53.18,0.068,10.63,104.625,11.11,12.12,50.8,0,110.7,13.12,11.90,79.3
"2016-04-12 00:38:30",1539368,-0.136,176.2,60.21,0.145,10.58,104.6372,11.14,12.13,50.72,0,110.7,13.12,11.93,138.2
"2016-04-12 00:39:00",1539369,-0.202,150.5,37,0.068,10.74,104.6406,11.15,12.14,50.64,0,110.7,13.12,11.94,112.5
"2016-04-12 00:39:30",1539370,-0.154,158.4,70.87,0.16,11,104.6435,11.16,12.14,50.59,0,110.7,13.12,11.95,120.4
"2016-04-12 00:40:00",1539371,-0.011,14.91,39.87,0.23,11.42,104.6458,11.17,12.15,50.5,0,110.7,13.12,11.96,336.9
"2016-04-12 00:40:30",1539372,0.179,59.23,11.73,0.127,11.54,104.6399,11.15,12.15,50.47,0,110.7,13.12,11.94,21.2
"2016-04-12 00:41:00",1539373,0.339,49.97,6.115,0.052,11.6,104.6425,11.16,12.16,50.43,0,110.7,13.12,11.95,12.0
"2016-04-12 00:41:30",1539374,0.075,64.64,7.031,0.094,11.97,104.6447,11.16,12.16,50.35,0,110.7,13.12,11.95,26.6
"2016-04-12 00:42:00",1539375,0.945,58.51,20.76,1.358,13.54,104.645,11.16,12.27,50.37,0,110.7,13.07,11.95,20.5
"2016-04-12 00:42:30",1539376,0.929,55.55,10.54,1.298,13.51,104.6444,11.16,12.31,50.32,0,110.7,13.07,11.95,17.5
"2016-04-12 00:43:00",1539377,0.168,68.55,5.934,0.043,12.53,104.6416,11.16,12.17,50.12,0,110.7,13.12,11.95,30.6
"2016-04-12 00:43:30",1539378,0.425,60.3,6.193,0.071,12.14,104.6405,11.15,12.17,50.11,0,110.7,13.11,11.94,22.3
"2016-04-12 00:44:00",1539379,1.295,42.8,8.84,1.319,13.71,104.6405,11.15,12.37,50.36,0,110.7,13.07,11.94,4.8
"2016-04-12 00:44:30",1539380,1.319,39.16,4.818,1.204,12.96,104.6332,11.13,12.24,50.22,0,110.7,13.07,11.92,1.2
"2016-04-12 00:45:00",1539381,1.481,45.46,6.86,1.216,13.24,104.6292,11.12,12.33,50.36,0,110.7,13.06,11.91,7.5
"2016-04-12 00:45:30",1539382,1.743,59.48,4.813,1.242,13.3,104.6284,11.12,12.22,50.3,0,110.7,13.06,11.91,21.5
"2016-04-12 00:46:00",1539383,0.774,52.64,8.64,0.082,11.61,104.6284,11.12,12.15,50.12,0,110.7,13.11,11.91,14.6
"2016-04-12 00:46:30",1539384,0.626,42.29,3.087,0.068,11.39,104.6281,11.12,12.16,50.01,0,110.7,13.11,11.91,4.3
"2016-04-12 00:47:00",1539385,0.622,39.41,2.656,0.06,11.6,104.6208,11.1,12.15,49.99,0,110.7,13.11,11.89,1.4
"2016-04-12 00:47:30",1539386,0.673,44.72,3.165,0.086,11.83,104.5999,11.05,12.14,50,0,110.7,13.12,11.84,6.7
"2016-04-12 00:48:00",1539387,1.151,54.56,7.826,1.241,13.42,104.5946,11.03,12.16,50.1,0,110.7,13.07,11.83,16.6
"2016-04-12 00:48:30",1539388,1.303,52.93,11.61,1.402,14.19,104.594,11.03,12.3,50.33,0,110.7,13.07,11.82,14.9
"2016-04-12 00:49:00",1539389,0.823,56.47,12.76,1.146,13.19,104.583,11.01,12.12,50.2,0,110.7,13.07,11.80,18.5
"2016-04-12 00:49:30",1539390,0.391,70.36,13.51,0.136,12.13,104.5611,10.95,12.08,50.27,0,110.7,13.12,11.74,32.4
"2016-04-12 00:50:00",1539391,1.932,73.89,13.13,1.514,14.38,104.5577,10.94,12.19,50.42,0,110.7,13.08,11.73,35.9
"2016-04-12 00:50:30",1539392,1.627,61.02,9.1,1.349,13.83,104.5364,10.89,12.16,50.6,0,110.7,13.08,11.68,23.0
"2016-04-12 00:51:00",1539393,1.447,62.64,12.23,1.395,13.68,104.5286,10.87,12.14,50.67,0,110.7,13.08,11.66,24.6
"2016-04-12 00:51:30",1539394,1.09,55.01,8.99,1.287,13.21,104.507,10.81,12.05,50.71,0,110.7,13.08,11.60,17.0
"2016-04-12 00:52:00",1539395,0.433,44.7,3.033,0.09,11.4,104.5006,10.79,11.94,50.71,0,110.7,13.12,11.58,6.7
"2016-04-12 00:52:30",1539396,0.455,56.79,10.21,0.074,11.42,104.4843,10.75,11.9,50.83,0,110.7,13.13,11.54,18.8
"2016-04-12 00:53:00",1539397,0.596,51.63,6.721,0.117,11.48,104.4703,10.72,11.89,50.94,0,110.6,13.13,11.51,13.6
"2016-04-12 00:53:30",1539398,0.834,65,5.439,0.107,11.61,104.4665,10.71,11.85,51.03,0,110.6,13.13,11.50,27.0
"2016-04-12 00:54:00",1539399,0.874,63.45,5.447,0.064,11.86,104.4516,10.67,11.83,51.1,0,110.6,13.13,11.46,25.5
"2016-04-12 00:54:30",1539400,1.594,63.41,7.33,1.215,13.45,104.4467,10.66,11.91,51.33,0,110.6,13.08,11.45,25.4
"2016-04-12 00:55:00",1539401,2.144,66.57,8.53,1.431,14.84,104.4269,10.61,11.97,51.5,0,110.6,13.08,11.40,28.6
"2016-04-12 00:55:30",1539402,0.905,54.31,4.163,0.108,12.16,104.4251,10.6,11.72,51.34,0,110.6,13.13,11.39,16.3
"2016-04-12 00:56:00",1539403,1.99,67.49,8.37,1.315,14.07,104.4085,10.56,11.8,51.55,0,110.6,13.08,11.35,29.5
"2016-04-12 00:56:30",1539404,1.589,65.57,9.31,1.243,13.5,104.3931,10.52,11.76,51.68,0,110.6,13.08,11.31,27.6
"2016-04-12 00:57:00",1539405,1.508,60.7,5.841,1.187,12.86,104.3804,10.49,11.67,51.74,0,110.6,13.09,11.28,22.7
"2016-04-12 00:57:30",1539406,2.529,65.62,7.248,1.455,14.74,104.3596,10.43,11.79,52.03,0,110.6,13.09,11.22,27.6
"2016-04-12 00:58:00",1539407,1.145,66.98,4.328,0.113,11.8,104.3565,10.43,11.57,51.92,0,110.6,13.13,11.21,29.0
"2016-04-12 00:58:30",1539408,1.122,69.34,5.867,0.086,11.61,104.3334,10.37,11.54,52.04,0,110.6,13.13,11.16,31.3
"2016-04-12 00:59:00",1539409,1.265,61.25,2.152,0.037,11.61,104.3258,10.35,11.5,52.14,0,110.6,13.14,11.14,23.2
"2016-04-12 00:59:30",1539410,1.032,62.44,2.336,0.094,11.68,104.31,10.31,11.48,52.23,0,110.6,13.14,11.09,24.4
"2016-04-12 01:00:00",1539411,1.25,65.59,4.934,0.902,12.43,104.292,10.26,11.51,52.38,0,110.6,13.09,11.05,27.6
"2016-04-12 01:00:30",1539412,2.318,61.05,8.64,1.447,14.77,104.2886,10.25,11.58,52.6,0,110.6,13.09,11.04,23.0
"2016-04-12 01:01:00",1539413,0.949,56.11,2.38,0.038,12.24,104.2669,10.2,11.38,52.54,0,110.6,13.14,10.98,18.1
"2016-04-12 01:01:30",1539414,1.659,64.71,7.922,1.217,13.31,104.2582,10.17,11.47,52.79,0,110.6,13.09,10.96,26.7
"2016-04-12 01:02:00",1539415,1.607,67.26,8.33,1.255,13.25,104.252,10.16,11.47,52.91,0,110.6,13.09,10.95,29.3
"2016-04-12 01:02:30",1539416,1.313,59.24,5.887,0.853,12.8,104.2287,10.1,11.36,52.92,0,110.6,13.09,10.89,21.2
"2016-04-12 01:03:00",1539417,1.347,58.86,3.171,0.735,12.3,104.2297,10.1,11.37,53.09,0,110.6,13.09,10.89,20.9
"2016-04-12 01:03:30",1539418,2.509,60.66,7.285,1.399,14.11,104.2273,10.1,11.38,53.23,0,110.6,13.09,10.88,22.7
"2016-04-12 01:04:00",1539419,1.44,40.89,3.621,0.102,11.59,104.2101,10.05,11.23,53.18,0,110.6,13.14,10.84,2.9
"2016-04-12 01:04:30",1539420,1.385,40.26,3.771,0.18,11.55,104.2032,10.03,11.21,53.28,0,110.6,13.14,10.82,2.3
"2016-04-12 01:05:00",1539421,1.327,42.5,4.919,0.188,11.69,104.2038,10.04,11.16,53.37,0,110.6,13.14,10.82,4.5
"2016-04-12 01:05:30",1539422,1.937,47.02,7.508,1.243,13.26,104.1891,10,11.3,53.62,0,110.5,13.09,10.78,9.0
"2016-04-12 01:06:00",1539423,1.591,45.28,11.26,1.36,13.86,104.187,9.99,11.25,53.65,0,110.5,13.1,10.78,7.3
"2016-04-12 01:06:30",1539424,0.945,37.81,5.365,0.245,11.84,104.1872,9.99,11.09,53.61,0,110.5,13.15,10.78,359.8
"2016-04-12 01:07:00",1539425,1.055,42.52,2.84,0.195,11.77,104.1658,9.94,11.09,53.73,0,110.5,13.14,10.72,4.5
"2016-04-12 01:07:30",1539426,2.093,48.6,8,1.442,14.79,104.1582,9.92,11.23,53.97,0,110.5,13.1,10.71,10.6
"2016-04-12 01:08:00",1539427,0.626,38,6.309,0.55,12.1,104.1571,9.92,11.07,53.94,0,110.5,13.1,10.70,0.0
"2016-04-12 01:08:30",1539428,1.229,39.28,10.96,1.225,13.37,104.1458,9.89,11.13,54.07,0,110.5,13.1,10.67,1.3
"2016-04-12 01:09:00",1539429,1.123,29.39,6.879,1.303,13.27,104.1255,9.84,11.07,54.11,0,110.5,13.1,10.62,351.4
"2016-04-12 01:09:30",1539430,0.195,42.89,7.512,0.109,11.57,104.1244,9.83,10.97,54.11,0,110.5,13.15,10.62,4.9
"2016-04-12 01:10:00",1539431,0.36,44.77,4.263,0.129,11.35,104.1244,9.83,10.94,54.22,0,110.5,13.15,10.62,6.8
"2016-04-12 01:10:30",1539432,0.462,69.25,17.48,0.052,11.54,104.1182,9.82,10.91,54.31,0,110.5,13.15,10.60,31.2
"2016-04-12 01:11:00",1539433,0.324,88.1,4.69,0.059,11.59,104.1084,9.79,10.91,54.35,0,110.5,13.15,10.58,50.1
"2016-04-12 01:11:30",1539434,1.52,82.2,13.29,1.262,14.01,104.0914,9.75,11.07,54.58,0,110.5,13.11,10.53,44.2
"2016-04-12 01:12:00",1539435,1.672,63.48,11.81,1.358,13.71,104.0906,9.75,11.01,54.59,0,110.5,13.11,10.53,25.5
"2016-04-12 01:12:30",1539436,0.712,52.22,4.676,0.116,11.92,104.0892,9.74,10.85,54.54,0,110.5,13.16,10.53,14.2
"2016-04-12 01:13:00",1539437,0.82,49.39,4.711,0.055,11.84,104.0808,9.72,10.84,54.6,0,110.5,13.16,10.51,11.4
"2016-04-12 01:13:30",1539438,0.944,68.16,7.95,0.691,12.15,104.0651,9.68,10.86,54.72,0,110.5,13.11,10.47,30.2
"2016-04-12 01:14:00",1539439,2.185,75.3,11.72,1.416,15.01,104.0612,9.67,10.99,54.91,0,110.5,13.11,10.46,37.3
"2016-04-12 01:14:30",1539440,0.75,63.4,4.621,0.073,12.11,104.065,9.68,10.79,54.84,0,110.5,13.16,10.47,25.4
"2016-04-12 01:15:00",1539441,1.511,61.67,7.374,1.237,13.42,104.0588,9.66,10.88,55.02,0,110.5,13.11,10.45,23.7
"2016-04-12 01:15:30",1539442,1.607,67.69,7.12,1.285,13.55,104.0402,9.62,10.86,55.06,0,110.5,13.11,10.40,29.7
"2016-04-12 01:16:00",1539443,0.834,70.26,3.57,0.085,11.85,104.0435,9.63,10.73,55.03,0,110.5,13.16,10.41,32.3
"2016-04-12 01:16:30",1539444,0.875,77.34,3.781,0.069,12,104.0485,9.64,10.73,55.12,0,110.5,13.16,10.42,39.3
"2016-04-12 01:17:00",1539445,2.571,83.5,7.48,1.413,14.69,104.0437,9.63,10.86,55.32,0,110.5,13.11,10.41,45.5
"2016-04-12 01:17:30",1539446,1.819,82.1,7.486,1.261,14.14,104.031,9.59,10.78,55.3,0,110.5,13.11,10.38,44.1
"2016-04-12 01:18:00",1539447,1.1,78.17,1.347,0.041,12.42,104.0243,9.58,10.67,55.24,0,110.5,13.16,10.36,40.2
"2016-04-12 01:18:30",1539448,1.076,78.34,2.096,0.045,12.22,104.0232,9.57,10.66,55.28,0,110.5,13.16,10.36,40.3
"2016-04-12 01:19:00",1539449,2.589,77.39,9.05,1.386,14.81,104.0142,9.55,10.82,55.49,0,110.5,13.11,10.34,39.4
"2016-04-12 01:19:30",1539450,2.015,80.6,6.314,1.282,13.65,104.0021,9.52,10.74,55.5,0,110.5,13.11,10.30,42.6
"2016-04-12 01:20:00",1539451,1.193,78.49,1.833,0.088,12.29,103.9905,9.49,10.6,55.45,0,110.5,13.16,10.27,40.5
"2016-04-12 01:20:30",1539452,1.951,80.3,7.355,1.305,14.01,103.9855,9.48,10.69,55.63,0,110.5,13.12,10.26,42.3
"2016-04-12 01:21:00",1539453,1.556,71.94,9.54,1.198,13.48,103.9683,9.43,10.63,55.64,0,110.5,13.11,10.22,33.9
"2016-04-12 01:21:30",1539454,0.802,61.84,2.315,0.04,11.97,103.957,9.4,10.53,55.62,0,110.5,13.16,10.19,23.8
"2016-04-12 01:22:00",1539455,1.149,59.33,6.704,0.914,12.68,103.9516,9.39,10.63,55.81,0,110.4,13.12,10.18,21.3
"2016-04-12 01:22:30",1539456,1.998,85.2,12.32,1.335,14.36,103.9356,9.35,10.58,55.89,0,110.4,13.12,10.13,47.2
"2016-04-12 01:23:00",1539457,0.724,81.1,5.668,0.08,12.58,103.9237,9.32,10.51,55.91,0,110.4,13.17,10.10,43.1
"2016-04-12 01:23:30",1539458,0.703,67.7,5.138,0.041,11.87,103.9219,9.31,10.44,55.96,0,110.4,13.17,10.10,29.7
"2016-04-12 01:24:00",1539459,0.764,63.66,1.625,0.053,11.83,103.9055,9.27,10.46,56.07,0,110.4,13.17,10.06,25.7
"2016-04-12 01:24:30",1539460,2.181,72.93,7.954,1.43,14.19,103.9043,9.27,10.58,56.25,0,110.4,13.13,10.05,34.9
"2016-04-12 01:25:00",1539461,1.28,72.04,7.533,1.129,13.35,103.9057,9.27,10.48,56.26,0,110.4,13.13,10.06,34.0
"2016-04-12 01:25:30",1539462,0.638,70.53,3.029,0.042,12.06,103.8944,9.24,10.35,56.23,0,110.4,13.18,10.03,32.5
"2016-04-12 01:26:00",1539463,1.327,74.83,5.281,1.265,13.51,103.8869,9.22,10.35,56.36,0,110.4,13.13,10.01,36.8
"2016-04-12 01:26:30",1539464,1.647,69.73,8.01,1.32,14.18,103.8816,9.21,10.53,56.65,0,110.4,13.13,10.00,31.7
"2016-04-12 01:27:00",1539465,0.78,74.5,4.735,0.744,12.49,103.8639,9.17,10.28,56.53,0,110.4,13.13,9.95,36.5
"2016-04-12 01:27:30",1539466,1.291,70.43,8.36,1.27,13.24,103.856,9.15,10.3,56.65,0,110.4,13.13,9.93,32.4
"2016-04-12 01:28:00",1539467,1.827,66.71,6.163,1.457,14.58,103.8444,9.12,10.41,56.89,0,110.4,13.13,9.90,28.7
"2016-04-12 01:28:30",1539468,0.818,59.61,3.41,0.723,11.94,103.8264,9.07,10.19,56.77,0,110.4,13.13,9.85,21.6
"2016-04-12 01:29:00",1539469,0.536,56.26,3.967,0.037,11.39,103.8216,9.06,10.17,56.87,0,110.4,13.18,9.84,18.3
"2016-04-12 01:29:30",1539470,0.55,53.66,3.082,0.065,11.37,103.8027,9.01,10.14,56.95,0,110.4,13.18,9.79,15.7
"2016-04-12 01:30:00",1539471,0.718,52.31,6.497,0.72,12.01,103.7889,8.97,10.21,57.15,0,110.4,13.14,9.76,14.3
"2016-04-12 01:30:30",1539472,2.059,69.96,7.288,1.383,14.05,103.7835,8.96,10.21,57.29,0,110.4,13.14,9.74,32.0
"2016-04-12 01:31:00",1539473,1.082,66.77,4.934,1.01,12.92,103.7661,8.92,10.17,57.37,0,110.4,13.14,9.70,28.8
"2016-04-12 01:31:30",1539474,0.648,70.84,2.643,0.061,12.11,103.756,8.89,10.05,57.39,0,110.4,13.19,9.67,32.8
"2016-04-12 01:32:00",1539475,1.477,71.33,8.6,1.269,13.56,103.7497,8.87,10.12,57.6,0,110.4,13.14,9.66,33.3
"2016-04-12 01:32:30",1539476,1.593,73.01,7.562,1.27,13.7,103.732,8.83,10.1,57.73,0,110.4,13.14,9.61,35.0
"2016-04-12 01:33:00",1539477,1.902,66.82,7.131,1.247,13.34,103.7288,8.82,10.08,57.82,0,110.4,13.14,9.60,28.8
"2016-04-12 01:33:30",1539478,1.913,68.19,6.257,1.22,13.39,103.7174,8.79,10.1,58,0,110.4,13.14,9.57,30.2
"2016-04-12 01:34:00",1539479,1.382,62.28,3.061,0.083,11.87,103.7061,8.76,9.91,57.98,0,110.4,13.19,9.55,24.3
"2016-04-12 01:34:30",1539480,1.572,66.01,1.82,0.057,11.63,103.7049,8.76,9.88,58.13,0,110.3,13.19,9.54,28.0
"2016-04-12 01:35:00",1539481,1.607,64.7,3.069,0.511,11.83,103.683,8.7,9.86,58.31,0,110.3,13.14,9.49,26.7
"2016-04-12 01:35:30",1539482,2.311,67.04,7.2,1.253,13.39,103.6843,8.71,9.99,58.62,0,110.3,13.14,9.49,29.0
"2016-04-12 01:36:00",1539483,2.253,63.53,6.797,1.159,13.27,103.6762,8.69,9.87,58.72,0,110.3,13.14,9.47,25.5
"2016-04-12 01:36:30",1539484,1.576,59.75,0.968,0.048,12,103.6548,8.63,9.78,58.76,0,110.3,13.19,9.41,21.8
"2016-04-12 01:37:00",1539485,2.59,65.91,6.5,1.355,13.69,103.6531,8.63,9.86,59.02,0,110.3,13.15,9.41,27.9
"2016-04-12 01:37:30",1539486,2.794,68.06,7.51,1.416,14.95,103.6345,8.58,9.97,59.31,0,110.3,13.15,9.36,30.1
"2016-04-12 01:38:00",1539487,2.495,64.42,7.07,1.394,13.74,103.621,8.54,9.8,59.26,0,110.3,13.15,9.33,26.4
"2016-04-12 01:38:30",1539488,1.556,58.52,0.931,0.03,11.73,103.6199,8.54,9.67,59.32,0,110.3,13.19,9.32,20.5
"2016-04-12 01:39:00",1539489,1.473,59.01,1.467,0.025,11.73,103.5984,8.49,9.64,59.42,0,110.3,13.19,9.27,21.0
"2016-04-12 01:39:30",1539490,1.455,58.02,1.303,0.052,11.78,103.5871,8.46,9.62,59.53,0,110.3,13.19,9.24,20.0
"2016-04-12 01:40:00",1539491,2.069,65.7,7.092,1.228,13.41,103.5871,8.46,9.73,59.76,0,110.3,13.15,9.24,27.7
"2016-04-12 01:40:30",1539492,2.307,70.52,7.148,1.3,14.06,103.5788,8.44,9.74,59.89,0,110.3,13.16,9.22,32.5
"2016-04-12 01:41:00",1539493,1.419,64.59,1.691,0.031,12.32,103.5597,8.39,9.54,59.78,0,110.3,13.2,9.17,26.6
"2016-04-12 01:41:30",1539494,2.274,67.05,6.968,1.294,13.86,103.5629,8.4,9.63,59.94,0,110.3,13.16,9.18,29.1
"2016-04-12 01:42:00",1539495,2.316,67.27,7.588,1.31,13.65,103.5639,8.4,9.66,60.09,0,110.3,13.16,9.18,29.3
"2016-04-12 01:42:30",1539496,3.096,69.7,6.602,1.481,15.04,103.5593,8.39,9.67,60.2,0,110.3,13.16,9.17,31.7
"2016-04-12 01:43:00",1539497,1.629,57.65,2.784,0.051,11.99,103.5521,8.37,9.5,60.14,0,110.3,13.16,9.15,19.7
"2016-04-12 01:43:30",1539498,1.664,61.02,2.529,0.069,11.65,103.5501,8.36,9.44,60.18,0,110.3,13.21,9.14,23.0
"2016-04-12 01:44:00",1539499,1.641,55.22,1.119,0.061,11.51,103.5519,8.37,9.43,60.28,0,110.3,13.21,9.15,17.2
"2016-04-12 01:44:30",1539500,1.759,58.97,2.85,0.522,12.01,103.5443,8.35,9.49,60.41,0,110.3,13.21,9.13,21.0
"2016-04-12 01:45:00",1539501,3.144,65.44,6.052,1.495,14.27,103.528,8.31,9.55,60.58,0,110.3,13.17,9.09,27.4
"2016-04-12 01:45:30",1539502,1.716,53.91,3.477,0.086,12.13,103.5206,8.29,9.44,60.57,0,110.3,13.21,9.07,15.9
"2016-04-12 01:46:00",1539503,3.056,62.15,7.525,1.403,14.27,103.5206,8.29,9.48,60.69,0,110.3,13.16,9.07,24.2
"2016-04-12 01:46:30",1539504,2.452,59.58,5.689,1.206,13.62,103.5206,8.29,9.56,60.85,0,110.3,13.16,9.07,21.6
"2016-04-12 01:47:00",1539505,3.255,63.57,7.428,1.441,14.82,103.5159,8.28,9.48,60.85,0,110.3,13.16,9.06,25.6
"2016-04-12 01:47:30",1539506,1.618,58.51,1.914,0.061,11.83,103.5017,8.24,9.32,60.78,0,110.3,13.21,9.02,20.5
"2016-04-12 01:48:00",1539507,1.702,60.27,1.988,0.056,11.57,103.491,8.21,9.31,60.85,0,110.2,13.21,8.99,22.3